STARLINK-2141, 47731

Orbit data source: Space-Track

STARLINK-2141, 47731 is a payload satellite owned by SpaceX/Seattle (US) in LEO that was launched on Thu, 04 Mar 2021 UTC via an FALCON 9 launch vehicle from the Air Force Eastern Test Range (AFETR). Payload-class satellites include a variety of spacecraft equipped with specific instruments for various scientific and technological missions. These include communications satellites like Starlink; space stations such as the ISS; scientific satellites like the Hubble; Earth observation satellites from companies like Planet Labs, Umbra, and HawkEye 360; GPS; miniature CubeSats for education and research; and military/defense satellites.

Loading next visibility...
Identifier
47731, 2021-017K
Orbit
LEO
Country
Flag of USUS
Related business
Manufacturer
SpaceX/Seattle
Mission
Partially operational Commercial Communications
Bus & Motor
STARLINK, Unknown motor
Mass
260 kg wet, ~248 kg dry
Launch date (UTC)
2021-03-04 (5 years ago)
Launch vehicle
FALCON 9
Launch site
Air Force Eastern Test Range (AFETR)
Object type
Payload
Rocket body
Debris
Shape & HBR
Box + 1 Pan, 10.1 m
Radar Cross Section
13.562 m², Large (>1 m²)

Expand to show TLE details & history
Last TLE update: 2 days ago

TLE from 2 days ago
0 STARLINK-2141
1 47731U 21017K   26171.41668980  .00160729  00000-0  58527-3 0  9997
2 47731  53.1523  64.1403 0003920 222.4743 261.4900 15.87506549  5949
Epoch: 2026-06-20T10:00Z
TLE epoch observation values (Epoch: 2026-06-20T10:00:01.998Z)
Latitude
41.74627°
Longitude
143.81832°
Altitude
313.615 km
Speed
7.725 km/s
True Right ascension
13h 29m 49s
True Declination
41° 33' 51"
Sunlit
Object was in daylight at epoch
Visualization orbit readout
Latitude
Unknown
Longitude
Unknown
Altitude
Unknown
Speed
Unknown
Apparent Right ascension
Unknown
Apparent Declination
Unknown
Sunlit
N/A
Visualization observer readout
Local Sidereal Time
21:37:28
Azimuth
Unknown
Elevation
Unknown
Doppler factor
Unknown
Orbital elements
Apogee altitude
312.162 km
Perigee altitude
306.918 km
Semi-major axis
6,687.677 km
Eccentricity
0.00039
Inclination
53.1523°
RAAN
64.1403°
Arg. of periapsis
222.4743°
True anomaly
261.44558°
Mean anomaly
261.49°
Eccentric anomaly
261.46779°
Mean motion
3.96854 °/min
Orbital period
90.71 mins
BSTAR
0.00058527
Loading maneuver chart data...
Computing Atmospheric mass density...

Documentation

Showing up to 5 results
|